Weather History for Wilmington, DE

Change the Weather History Date:

Saturday, March 15, 2014

  Actual Average Record
Temperature  
Mean Temperature 53 °F 43 °F  
Max Temperature 65 °F 52 °F 80 °F (1990)
Min Temperature 40 °F 33 °F 13 °F (1993)
Degree Days  
Heating Degree Days 12 22  
Month to date heating degree days 428 369  
Since 1 July heating degree days 4283 3992  
Cooling Degree Days 0 0  
Month to date cooling degree days 0 0  
Year to date cooling degree days 0 0  
Growing Degree Days 3 (Base 50)    
Moisture  
Dew Point 26 °F    
Average Humidity 42    
Maximum Humidity 62    
Minimum Humidity 22    
Precipitation  
Precipitation T in 0.13 in 2.32 in (1912)
Month to date precipitation 0.59 1.74  
Year to date precipitation 9.17 7.43  
Snow  
Snow 0.00 in 0.00 in 0.10 in (1987)
Month to date snowfall 4.5 1.4  
Since 1 July snowfall 52.9 19.4  
Snow Depth 0.00 in    
Sea Level Pressure  
Sea Level Pressure 29.89 in    
Wind  
Wind Speed 13 mph (West)    
Max Wind Speed 29 mph    
Max Gust Speed 38 mph    
Visibility 10 miles    
Events      
T = Trace of Precipitation, MM = Missing Value Source: NWS Daily Summary

Daily Weather History Graph

Daily Weather History Graph

Search for Another Location

Airport:

Trip Planner

Search our weather history database for the weather conditions in past years. The results will help you decide how hot, cold, wet, or windy it might be!

Date:

Astronomy

Mar. 15, 2014 Rise Set
Actual Time 7:13 AM EDT 7:09 PM EDT
Civil Twilight 6:47 AM EDT 7:36 PM EDT
Nautical Twilight 6:15 AM EDT 8:07 PM EDT
Astronomical Twilight 5:44 AM EDT 8:39 PM EDT
Moon 6:26 PM EDT (3/15) 6:24 AM EDT (3/15)
Length of Visible Light 12h 49m
Length of Day
11h 55m
Waxing Gibbous, 99% of the Moon is Illuminated
Mar 15
Waxing Gibbous
Mar 16
Full
Mar 23
Last Quarter
Mar 30
New
Apr 7
First Quarter

Hourly Weather History & Observations

Time (EDT) Temp. Windchill Dew Point Humidity Pressure Visibility Wind Dir Wind Speed Gust Speed Precip Events Conditions
12:51 AM 43.0 °F 37.7 °F 28.9 °F 58% 29.89 in 10.0 mi South 9.2 mph - N/A   Mostly Cloudy
1:51 AM 43.0 °F 41.3 °F 30.0 °F 60% 29.88 in 10.0 mi SE 3.5 mph - N/A   Overcast
2:51 AM 48.9 °F - 26.1 °F 41% 29.86 in 10.0 mi SSW 9.2 mph - N/A   Overcast
3:51 AM 48.9 °F - 26.1 °F 41% 29.81 in 10.0 mi SSW 12.7 mph - N/A   Overcast
4:51 AM 50.0 °F - 25.0 °F 38% 29.81 in 10.0 mi SSW 12.7 mph - N/A   Overcast
5:51 AM 48.0 °F - 26.1 °F 42% 29.82 in 10.0 mi SW 10.4 mph - N/A   Partly Cloudy
6:51 AM 50.0 °F - 26.1 °F 39% 29.82 in 10.0 mi SW 13.8 mph - N/A   Mostly Cloudy
7:51 AM 50.0 °F - 26.1 °F 39% 29.84 in 10.0 mi WSW 11.5 mph - N/A   Overcast
8:51 AM 50.0 °F - 28.0 °F 43% 29.86 in 10.0 mi SW 9.2 mph - 0.00 in   Overcast
9:51 AM 50.0 °F - 28.0 °F 43% 29.86 in 10.0 mi SW 10.4 mph - N/A   Overcast
10:51 AM 57.0 °F - 28.9 °F 34% 29.87 in 10.0 mi WSW 21.9 mph 26.5 mph N/A   Partly Cloudy
11:51 AM 61.0 °F - 30.9 °F 32% 29.86 in 10.0 mi WSW 21.9 mph 32.2 mph N/A   Scattered Clouds
12:51 PM 61.0 °F - 26.1 °F 26% 29.86 in 10.0 mi West 24.2 mph 34.5 mph N/A   Partly Cloudy
1:51 PM 63.0 °F - 26.1 °F 25% 29.86 in 10.0 mi West 17.3 mph 32.2 mph N/A   Partly Cloudy
2:51 PM 63.0 °F - 25.0 °F 24% 29.84 in 10.0 mi West 21.9 mph 34.5 mph N/A   Clear
3:51 PM 64.0 °F - 24.1 °F 22% 29.85 in 10.0 mi WNW 20.7 mph 27.6 mph N/A   Scattered Clouds
4:51 PM 62.1 °F - 26.1 °F 25% 29.86 in 10.0 mi NW 17.3 mph 25.3 mph N/A   Clear
5:51 PM 60.1 °F - 25.0 °F 26% 29.89 in 10.0 mi NW 13.8 mph 23.0 mph N/A   Clear
6:51 PM 55.9 °F - 24.1 °F 29% 29.93 in 10.0 mi NW 13.8 mph - N/A   Clear
7:51 PM 51.1 °F - 25.0 °F 36% 29.96 in 10.0 mi NNW 9.2 mph - N/A   Clear
8:51 PM 50.0 °F - 25.0 °F 38% 30.00 in 10.0 mi NNW 12.7 mph - N/A   Clear
9:51 PM 46.0 °F 41.4 °F 24.1 °F 42% 30.02 in 10.0 mi NNW 9.2 mph - N/A   Clear
10:51 PM 42.1 °F 37.7 °F 24.1 °F 49% 30.04 in 10.0 mi NNW 6.9 mph - N/A   Clear
11:51 PM 44.1 °F 41.5 °F 23.0 °F 43% 30.05 in 10.0 mi NW 4.6 mph - N/A   Clear